Location: ??? ?????
(30.6482°N, 60.5850°E)
Time: 22:21:39
(UTC+00:00)

Cosmos 1378 Rocket - Pass Details

Date: 09 April 2020
Orbit: 601 x 627 km, 82.5° (Epoch: 24 May)

Event Time Altitude Azimuth Distance (km) Brightness Sun altitude
Exits shadow 23:38:32 43° 146° (SE) 852 4.2 -24.8°
Maximum altitude 23:39:37 58° 94° (E) 712 4.0 -24.5°
Drops below altitude 10° 23:43:55 10° 15° (NNE) 1,975 6.6 -23.7°
Sets 23:46:10 0° 11° (NNE) 2,888 7.5 -23.3°
